Tracking 35331 objects as of 16-Sep-2026
HD Live streaming from Space Station
objects crossing your sky now

UNISAT 7

Track UNISAT 7 now!
10-day predictions
UNISAT 7 is classified as:


NORAD ID: 47945
Int'l Code: 2021-022P
Launch date: March 22, 2021
Source: (ITA)
Launch site: TYURATAM MISSILE AND SPACE COMPLEX (TTMTR)

Uplink (MHz):
Downlink (MHz): 437.425
Beacon (MHz):
Mode: 9k6 GFSK
Call sign: II0US
Status: Active

Your satellite tracking list
Your tracking list is empty




NASA's NSSDC Master Catalog

Two Line Element Set (TLE):
1 47945U 21022P   26258.70922607  .00012304  00000-0  28375-3 0  9990
2 47945  97.3778 164.6703 0010608 103.7513 256.4916 15.42659363303805
Source of the keplerian elements: AFSPC